Location: Jaite
(41.2884°N, 81.5737°W)
Time: 13:06:31
(UTC+00:00)

Meteor 2-17 Rocket - Pass Details

Date: 15 November 2025
Orbit: 936 x 955 km, 82.5° (Epoch: 06 December)

Event Time Altitude Azimuth Distance (km) Brightness Sun altitude
Rises 11:12:13 0° 188° (S) 3,582 7.5 -11.9°
Reaches altitude 10° 11:14:41 10° 189° (S) 2,643 6.9 -11.5°
Maximum altitude 11:20:44 84° 277° (W) 953 4.4 -10.4°
Drops below altitude 10° 11:26:52 10° 7° (N) 2,673 6.7 -9.3°
Sets 11:29:22 0° 8° (N) 3,625 7.4 -8.8°
